Вернуться в каталог

COSMOS 1275 DEB

АктивенPO
NORAD 14228·DEBRIS·🇷🇺 Russia

Запущен Jun 4, 1981 с Plesetsk Cosmodrome

Loading…

Ближайшие Пролёты (ближайшие 24 часа)

TLE

СвежийSource: Space-Track

Эпоха: Sep 14, 2026, 18:37 UTC

1 14228U 81053HN  26257.77569826  .00000900  00000-0  75047-3 0  9991
2 14228  82.9681   9.2469 0090222  46.9065 104.7699 13.85587930181542

Отслеживайте COSMOS 1275 DEB в реальном времени с AllMySat

Download on the App Store